Tracking 20041 objects as of 22-Nov-2019
Live streaming from Space Station
objects crossing your sky now

INTELSAT 804

Track INTELSAT 804 now!
INTELSAT 804 is classified as:


NORAD ID: 25110
Int'l Code: 1997-083A
Perigee: 35,795.9 km
Apogee: 35,847.7 km
Inclination: 10.7 °
Period: 1,437.5 minutes
Semi major axis: 42192 km
RCS: 10.0118 m2 (large)
Launch date: December 21, 1997
Source: International Telecommunications Satellite Organization (ITSO)
Launch site: FRENCH GUIANA (FRGUI)
aabbcc
Your satellite tracking list
Your tracking list is empty




NASA's NSSDC Master Catalog

Two Line Element Set (TLE):
1 25110U 97083A   19326.18592316 -.00000276  00000-0  00000+0 0  9997
2 25110  10.7391  33.9283 0006133 299.3752  84.7223  1.00171807 80379
Source of the keplerian elements: AFSPC